KB1PVH-13 Weather Reports


time (UTC)temp
F
wind
direction
speed
knots
gust
knots
rain 1hr
in
rain 24hr
in
rain mn
in
humidity
%
barometer
mb
20260507000017 58 248 0.9 5.2 0.02 0.13 0.13 92 923.2
20260506235017 58 0.0 2.6 0.02 0.13 0.13 92 923.2
20260506234017 59 0.0 2.6 0.02 0.13 0.13 92 923.1
20260506233017 59 0.0 3.5 0.02 0.13 0.13 92 923.1
20260506232037 59 248 1.7 7.8 0.02 0.13 0.13 91 923.1
20260506231017 59 270 0.9 4.3 0.00 0.11 0.11 91 923.0
20260506230017 59 270 1.7 7.8 0.00 0.11 0.11 91 923.0
20260506225100 59 270 1.7 7.0 0.01 0.11 0.11 91 923.1
20260506224017 59 270 0.9 2.6 0.01 0.11 0.11 91 923.1
20260506223037 59 0.0 1.7 0.01 0.11 0.11 91 923.1
20260506222038 59 293 1.7 5.2 0.01 0.11 0.11 91 922.8
20260506221018 59 0.0 1.7 0.02 0.11 0.11 91 922.9
20260506220017 59 248 0.9 3.5 0.02 0.11 0.11 91 923.1
20260506215017 60 0.0 1.7 0.02 0.10 0.10 91 923.1
20260506214038 60 158 0.9 4.3 0.02 0.10 0.10 91 923.2
20260506213017 60 270 1.7 5.2 0.03 0.10 0.10 90 923.4
20260506212017 60 248 0.9 4.3 0.03 0.10 0.10 90 923.6
20260506211038 60 270 2.6 7.8 0.03 0.09 0.09 89 923.7
20260506210017 60 135 0.9 2.6 0.03 0.09 0.09 90 923.7
20260506205017 60 270 1.7 10.4 0.02 0.08 0.08 89 923.7
20260506204017 60 135 0.9 5.2 0.02 0.08 0.08 89 923.8
20260506203017 60 270 0.9 3.5 0.02 0.07 0.07 89 924.0
20260506202017 60 0.0 2.6 0.02 0.07 0.07 89 923.7
20260506201017 60 158 0.9 7.0 0.02 0.06 0.06 89 924.0
20260506200018 60 270 0.9 7.0 0.03 0.06 0.06 88 924.2
20260506195017 60 270 0.9 5.2 0.04 0.06 0.06 87 924.1
20260506194017 60 270 0.9 7.0 0.05 0.06 0.06 87 924.0
20260506193017 60 248 0.9 3.5 0.05 0.05 0.05 87 924.2
20260506192017 60 270 1.7 5.2 0.05 0.05 0.05 86 923.9
20260506191017 61 270 1.7 4.3 0.04 0.04 0.04 84 924.1
20260506190018 61 158 1.7 4.3 0.03 0.03 0.03 83 924.5
20260506185018 62 270 1.7 6.1 0.02 0.02 0.02 82 924.6
20260506184016 63 270 1.7 7.0 0.01 0.01 0.01 78 924.6
20260506183017 65 158 0.9 4.3 0.00 0.00 0.00 75 924.7
20260506182017 65 248 2.6 6.1 0.00 0.00 0.00 72 924.6
20260506181017 66 248 2.6 7.8 0.00 0.00 0.00 70 924.6
20260506180017 67 270 2.6 6.1 0.00 0.00 0.00 66 924.9
20260506175017 68 270 2.6 6.1 0.00 0.00 0.00 64 924.7
20260506174017 69 270 1.7 7.0 0.00 0.00 0.00 61 925.2
20260506173038 71 135 2.6 6.1 0.00 0.00 0.00 58 924.8
20260506172017 71 248 3.5 10.4 0.00 0.00 0.00 58 924.9
20260506171017 71 248 4.3 12.2 0.00 0.00 0.00 56 925.2
20260506170018 72 270 3.5 8.7 0.00 0.00 0.00 56 925.0
20260506165037 71 293 3.5 7.8 0.00 0.00 0.00 56 924.7
20260506164036 72 248 2.6 7.8 0.00 0.00 0.00 56 925.3
20260506163016 71 270 3.5 9.6 0.00 0.00 0.00 58 925.1
20260506162037 71 270 2.6 7.0 0.00 0.00 0.00 58 925.4
20260506161016 71 248 3.5 8.7 0.00 0.00 0.00 56 925.7
20260506160037 72 248 3.5 7.0 0.00 0.00 0.00 56 925.4
20260506155017 72 158 2.6 9.6 0.00 0.00 0.00 57 925.7
20260506154036 72 270 3.5 15.6 0.00 0.00 0.00 57 925.6
20260506153017 71 248 2.6 6.1 0.00 0.00 0.00 58 926.0
20260506152016 72 248 1.7 5.2 0.00 0.00 0.00 58 926.1
20260506151036 71 248 1.7 7.8 0.00 0.00 0.00 58 926.2
20260506150038 70 248 1.7 5.2 0.00 0.00 0.00 61 926.0
20260506145016 69 248 3.5 10.4 0.00 0.00 0.00 62 926.4
20260506144016 69 270 1.7 7.8 0.00 0.00 0.00 62 926.1
20260506143016 69 135 2.6 9.6 0.00 0.00 0.00 61 926.4
20260506142036 69 270 2.6 6.1 0.00 0.00 0.00 62 926.3
20260506141016 69 270 1.7 4.3 0.00 0.00 0.00 63 926.2
20260506140016 69 270 3.5 9.6 0.00 0.00 0.00 62 926.2
20260506135016 69 135 0.9 3.5 0.00 0.00 0.00 66 925.9
20260506134017 67 270 2.6 7.8 0.00 0.00 0.00 68 926.2
20260506133016 67 248 2.6 7.0 0.00 0.00 0.00 69 926.3
20260506132016 66 270 1.7 4.3 0.00 0.00 0.00 71 926.7
20260506131016 65 270 2.6 6.1 0.00 0.00 0.00 73 926.8
20260506130016 64 248 1.7 5.2 0.00 0.00 0.00 73 926.6
20260506125016 64 270 2.6 6.1 0.00 0.00 0.00 74 926.8
20260506124037 64 248 2.6 7.8 0.00 0.00 0.00 75 926.8
20260506123036 63 248 2.6 6.1 0.00 0.00 0.00 75 926.6
20260506122016 63 135 1.7 7.8 0.00 0.00 0.00 75 927.0
20260506121037 63 248 2.6 5.2 0.00 0.00 0.00 77 926.7
20260506120016 62 248 2.6 7.8 0.00 0.00 0.00 78 926.8
20260506115036 61 270 1.7 7.0 0.00 0.00 0.00 79 926.7
20260506114056 61 248 1.7 5.2 0.00 0.00 0.00 80 926.8
20260506113016 61 0.0 2.6 0.00 0.00 0.00 80 926.9
20260506112016 61 248 1.7 5.2 0.00 0.00 0.00 79 927.5
20260506111016 61 248 0.9 5.2 0.00 0.00 0.00 80 927.0
20260506110016 60 248 0.9 4.3 0.00 0.00 0.00 80 927.0
20260506105017 60 270 0.9 3.5 0.00 0.00 0.00 81 927.1
20260506104016 59 270 1.7 7.0 0.00 0.00 0.00 82 926.9
20260506103016 59 158 0.9 5.2 0.00 0.00 0.00 82 926.8
20260506102016 59 0.0 1.7 0.00 0.00 0.00 82 927.0
20260506101056 59 0.0 4.3 0.00 0.00 0.00 82 927.1
20260506100016 59 0.0 1.7 0.00 0.00 0.00 82 926.9
20260506095116 59 0.0 2.6 0.00 0.00 0.00 81 927.0
20260506094036 59 0.0 0.9 0.00 0.00 0.00 81 927.0
20260506093016 59 248 1.7 7.8 0.00 0.00 0.00 81 926.8
20260506092016 59 270 0.9 6.1 0.00 0.00 0.00 81 926.8
20260506091016 59 248 0.9 7.0 0.00 0.00 0.00 81 926.8
20260506090017 59 270 0.9 4.3 0.00 0.00 0.00 80 927.1
20260506085016 59 248 0.9 5.2 0.00 0.00 0.00 80 927.2
20260506084016 59 0.0 2.6 0.00 0.00 0.00 80 927.3
20260506083017 59 248 0.9 4.3 0.00 0.00 0.00 80 927.1
20260506082016 59 270 0.9 6.1 0.00 0.00 0.00 79 927.1
20260506081036 59 270 0.9 7.0 0.00 0.00 0.00 79 927.1
20260506073015 60 248 1.7 4.3 0.00 0.00 0.00 77 927.3
20260506072036 60 248 2.6 11.3 0.00 0.00 0.00 77 927.3
20260506071016 60 270 1.7 7.0 0.00 0.00 0.00 76 927.0
20260506062016 62 135 2.6 6.1 0.00 0.00 0.00 73 926.9
20260506061017 62 248 2.6 6.1 0.00 0.00 0.00 72 927.1
20260506051015 63 270 2.6 7.0 0.00 0.00 0.00 69 927.4
20260506045017 63 248 2.6 6.1 0.00 0.00 0.00 67 927.5
20260506044016 63 248 2.6 6.1 0.00 0.00 0.00 67 927.3
20260506043037 63 248 2.6 4.3 0.00 0.00 0.00 66 927.4
20260506042016 63 270 3.5 7.8 0.00 0.00 0.00 65 927.6
20260506041015 63 248 4.3 11.3 0.00 0.00 0.00 65 927.3
20260506040015 63 270 2.6 7.0 0.00 0.00 0.00 65 927.3
20260506035017 63 270 2.6 7.0 0.00 0.00 0.00 64 927.2
20260506034516 63 248 1.7 7.8 0.00 0.00 0.00 65 927.4
20260506033516 63 248 3.5 13.0 0.00 0.00 0.00 64 927.1
20260506032516 63 270 3.5 8.7 0.00 0.00 0.00 64 927.2
20260506031536 63 270 1.7 7.0 0.00 0.00 0.00 65 927.2
20260506030517 63 270 1.7 5.2 0.00 0.00 0.00 65 927.3
20260506025516 63 158 0.9 7.0 0.00 0.00 0.00 64 927.3
20260506024517 63 248 2.6 7.0 0.00 0.00 0.00 65 927.3
20260506023516 63 248 3.5 9.6 0.00 0.00 0.00 64 927.4
20260506022516 63 248 2.6 7.8 0.00 0.00 0.00 64 927.1
20260506021516 63 248 2.6 6.1 0.00 0.00 0.00 64 927.5
20260506020516 63 248 2.6 6.1 0.00 0.00 0.00 64 927.1
20260506015516 63 270 2.6 9.6 0.00 0.00 0.00 63 927.0
20260506014536 63 270 2.6 6.1 0.00 0.00 0.00 63 927.3
20260506013516 63 248 2.6 7.8 0.00 0.00 0.00 62 927.1
20260506012516 63 270 3.5 8.7 0.00 0.00 0.00 62 926.9
20260506011536 63 248 1.7 6.1 0.00 0.00 0.00 61 927.0
20260506010517 64 248 1.7 5.2 0.00 0.00 0.00 61 926.9
20260506005517 64 248 3.5 7.0 0.00 0.00 0.00 60 926.7
20260506004516 65 270 3.5 8.7 0.00 0.00 0.00 59 926.6
20260506003536 65 248 2.6 7.0 0.00 0.00 0.00 59 926.6
20260506002516 65 270 3.5 10.4 0.00 0.00 0.00 59 926.4
20260506001516 66 270 3.5 12.2 0.00 0.00 0.00 58 926.3